sat.trackr.live / text

‹ back to catalog

GALAXY 35 (G-35)

NORAD 54741 · 2022-170A

PAYLOAD ACTIVE UNKNOWN

§ Identity

Operator
Country
ITSO
Launch date
2022-12-13
Launch site
FRGUI
Launch vehicle
Mass (kg)
RCS (m²)

Purposes: comms

External: N2YO · Heavens-Above · Gunter

§ Orbital elements

Epoch: 2026-09-20T04:19:38.599104Z

Period
1,436.09 min
Inclination
0.0103°
Eccentricity
0.0002009
Mean motion
1.00271925 rev/d
Perigee alt
35,778.1 km
Apogee alt
35,795.0 km
Semi-major
42,164.7 km
B*
0.0000e+0
RAAN
207.1156°
Arg perigee
323.9370°
Mean anomaly
159.8477°
Rev number
1,384

§ Raw data

GALAXY 35 (G-35)1 54741U 22170A   26263.18030786 -.00000167  00000+0  00000+0 0  99982 54741   0.0103 207.1156 0002009 323.9370 159.8477  1.00271925 13841

JSON: /api/v1/satellites/54741 · /tle

For live sub-satellite position, see the globe view (requires WebGL).

§ Visibility from observer

Set your observer location to see the next 7 days of passes ≥ 10°. The values pass through the URL so the page stays shareable.

No JS? Fill the form by hand. The geolocation button needs JavaScript.